| time (UTC) | temp F | wind direction | speed MPH | gust MPH | rain 1hr in | rain 24hr in | rain mn in | humidity % | barometer mb |
| 20260506131632 | 53 | 319 | 9.0 | 10.0 | 0.00 | 0.00 | 0.00 | 81 | 1016.9 |
| 20260506130630 | 53 | 298 | 9.0 | 11.0 | 0.00 | 0.00 | 0.00 | 82 | 1017.0 |
| 20260506125622 | 53 | 15 | 6.0 | 8.0 | 0.00 | 0.00 | 0.00 | 83 | 1017.1 |
| 20260506124614 | 53 | 316 | 3.0 | 5.0 | 0.00 | 0.00 | 0.00 | 84 | 1016.9 |
| 20260506123549 | 53 | 314 | 8.0 | 10.0 | 0.00 | 0.00 | 0.00 | 83 | 1016.6 |
| 20260506122559 | 53 | 325 | 5.0 | 7.0 | 0.00 | 0.00 | 0.00 | 84 | 1016.6 |
| 20260506121550 | 53 | 16 | 7.0 | 9.0 | 0.00 | 0.00 | 0.00 | 83 | 1016.2 |
| 20260506120558 | 53 | 349 | 8.0 | 11.0 | 0.00 | 0.00 | 0.00 | 82 | 1016.6 |
| 20260506115533 | 53 | 275 | 8.0 | 9.0 | 0.00 | 0.00 | 0.00 | 81 | 1016.3 |
| 20260506114546 | 54 | 316 | 12.0 | 14.0 | 0.00 | 0.00 | 0.00 | 80 | 1016.1 |
| 20260506113517 | 54 | 351 | 4.0 | 5.0 | 0.00 | 0.00 | 0.00 | 79 | 1015.9 |
| 20260506112510 | 54 | 138 | 5.0 | 7.0 | 0.00 | 0.00 | 0.00 | 79 | 1016.0 |
| 20260506111502 | 55 | 321 | 9.0 | 11.0 | 0.00 | 0.00 | 0.00 | 77 | 1015.5 |
| 20260506110454 | 55 | 316 | 8.0 | 10.0 | 0.00 | 0.00 | 0.00 | 75 | 1015.4 |
| 20260506105521 | 55 | 285 | 4.0 | 6.0 | 0.00 | 0.00 | 0.00 | 75 | 1015.3 |
| 20260506104454 | 55 | 153 | 3.0 | 5.0 | 0.00 | 0.00 | 0.00 | 74 | 1015.1 |
| 20260506103522 | 55 | 352 | 6.0 | 8.0 | 0.00 | 0.00 | 0.00 | 74 | 1014.9 |
| 20260506102454 | 55 | 344 | 5.0 | 7.0 | 0.00 | 0.00 | 0.00 | 74 | 1014.8 |
| 20260506101522 | 55 | 254 | 7.0 | 10.0 | 0.00 | 0.00 | 0.00 | 73 | 1014.6 |
| 20260506100454 | 56 | 309 | 7.0 | 9.0 | 0.00 | 0.00 | 0.00 | 74 | 1014.5 |
| 20260506095502 | 56 | 317 | 5.0 | 7.0 | 0.00 | 0.00 | 0.00 | 73 | 1014.3 |
| 20260506094454 | 56 | 83 | 4.0 | 6.0 | 0.00 | 0.00 | 0.00 | 73 | 1014.3 |
| 20260506093502 | 56 | 123 | 2.0 | 5.0 | 0.00 | 0.00 | 0.00 | 73 | 1014.2 |
| 20260506092515 | 56 | 7 | 5.0 | 7.0 | 0.00 | 0.00 | 0.00 | 72 | 1014.3 |
| 20260506091502 | 57 | 69 | 5.0 | 8.0 | 0.00 | 0.00 | 0.00 | 72 | 1014.1 |
| 20260506090455 | 57 | 311 | 6.0 | 7.0 | 0.00 | 0.00 | 0.00 | 72 | 1014.0 |
| 20260506085501 | 57 | 11 | 5.0 | 8.0 | 0.00 | 0.00 | 0.00 | 72 | 1013.9 |
| 20260506084454 | 57 | 303 | 6.0 | 8.0 | 0.00 | 0.00 | 0.00 | 72 | 1013.7 |
| 20260506083502 | 57 | 324 | 4.0 | 6.0 | 0.00 | 0.00 | 0.00 | 73 | 1013.8 |
| 20260506082454 | 57 | 274 | 7.0 | 8.0 | 0.00 | 0.00 | 0.00 | 73 | 1013.8 |
| 20260506081502 | 57 | 8 | 4.0 | 6.0 | 0.00 | 0.00 | 0.00 | 73 | 1013.5 |
| 20260506080454 | 57 | 35 | 4.0 | 5.0 | 0.00 | 0.00 | 0.00 | 73 | 1013.4 |
| 20260506073523 | 58 | 92 | 3.0 | 3.0 | 0.00 | 0.00 | 0.00 | 74 | 1013.4 |
| 20260506072453 | 58 | 63 | 3.0 | 5.0 | 0.00 | 0.00 | 0.00 | 74 | 1013.7 |
| 20260506071502 | 58 | 53 | 5.0 | 8.0 | 0.00 | 0.00 | 0.00 | 74 | 1013.6 |
| 20260506070454 | 58 | 330 | 6.0 | 8.0 | 0.00 | 0.00 | 0.00 | 74 | 1013.3 |
| 20260506062454 | 59 | 344 | 8.0 | 11.0 | 0.00 | 0.00 | 0.00 | 75 | 1013.4 |
| 20260506061502 | 59 | 0.0 | 0.0 | 0.00 | 0.00 | 0.00 | 75 | 1013.4 | |
| 20260506060454 | 59 | 358 | 6.0 | 9.0 | 0.00 | 0.00 | 0.00 | 75 | 1013.5 |
| 20260506050454 | 61 | 344 | 6.0 | 8.0 | 0.00 | 0.00 | 0.00 | 77 | 1013.1 |
| 20260506044454 | 62 | 318 | 8.0 | 10.0 | 0.00 | 0.00 | 0.00 | 76 | 1013.2 |
| 20260506043502 | 62 | 294 | 8.0 | 13.0 | 0.00 | 0.00 | 0.00 | 76 | 1013.1 |
| 20260506042455 | 63 | 300 | 10.0 | 14.0 | 0.00 | 0.00 | 0.00 | 76 | 1013.0 |
| 20260506041502 | 63 | 309 | 9.0 | 11.0 | 0.00 | 0.00 | 0.00 | 76 | 1012.8 |
| 20260506040455 | 64 | 280 | 11.0 | 14.0 | 0.00 | 0.00 | 0.00 | 76 | 1012.8 |
| 20260506035502 | 64 | 296 | 5.0 | 7.0 | 0.00 | 0.00 | 0.00 | 76 | 1012.9 |
| 20260506034455 | 65 | 307 | 9.0 | 13.0 | 0.00 | 0.00 | 0.00 | 75 | 1012.7 |
| 20260506033502 | 66 | 298 | 10.0 | 14.0 | 0.00 | 0.00 | 0.00 | 75 | 1012.3 |
| 20260506032454 | 67 | 245 | 11.0 | 13.0 | 0.00 | 0.00 | 0.00 | 74 | 1012.2 |
| 20260506031502 | 68 | 25 | 7.0 | 8.0 | 0.00 | 0.00 | 0.00 | 74 | 1012.1 |
| 20260506030515 | 68 | 122 | 3.0 | 5.0 | 0.00 | 0.00 | 0.00 | 73 | 1012.0 |
| 20260506025503 | 69 | 22 | 5.0 | 7.0 | 0.00 | 0.00 | 0.00 | 73 | 1012.0 |
| 20260506024455 | 69 | 305 | 7.0 | 10.0 | 0.00 | 0.00 | 0.00 | 72 | 1011.5 |
| 20260506023503 | 69 | 174 | 4.0 | 6.0 | 0.00 | 0.00 | 0.00 | 72 | 1011.0 |
| 20260506022455 | 70 | 67 | 5.0 | 7.0 | 0.00 | 0.00 | 0.00 | 72 | 1010.6 |
| 20260506021502 | 70 | 34 | 6.0 | 9.0 | 0.00 | 0.00 | 0.00 | 72 | 1010.6 |
| 20260506020454 | 71 | 58 | 8.0 | 9.0 | 0.00 | 0.00 | 0.00 | 72 | 1010.1 |
| 20260506015502 | 72 | 258 | 5.0 | 7.0 | 0.00 | 0.00 | 0.00 | 71 | 1010.4 |
| 20260506014454 | 73 | 317 | 4.0 | 8.0 | 0.00 | 0.00 | 0.00 | 70 | 1009.5 |
| 20260506013523 | 73 | 305 | 4.0 | 6.0 | 0.00 | 0.00 | 0.00 | 69 | 1010.1 |
| 20260506012454 | 73 | 234 | 5.0 | 6.0 | 0.00 | 0.00 | 0.00 | 69 | 1009.9 |
| 20260506011503 | 74 | 0.0 | 0.0 | 0.00 | 0.00 | 0.00 | 69 | 1009.5 | |
| 20260506010455 | 74 | 318 | 1.0 | 3.0 | 0.00 | 0.00 | 0.00 | 68 | 1009.8 |
| 20260506005503 | 74 | 43 | 2.0 | 3.0 | 0.00 | 0.00 | 0.00 | 67 | 1008.9 |
| 20260506004454 | 74 | 327 | 8.0 | 9.0 | 0.00 | 0.00 | 0.00 | 66 | 1009.2 |
| 20260506003503 | 75 | 290 | 6.0 | 9.0 | 0.00 | 0.00 | 0.00 | 65 | 1009.1 |
| 20260506002455 | 76 | 10 | 6.0 | 9.0 | 0.00 | 0.00 | 0.00 | 65 | 1009.1 |
| 20260506001503 | 77 | 307 | 9.0 | 10.0 | 0.00 | 0.00 | 0.00 | 64 | 1009.1 |
| 20260506000514 | 78 | 305 | 6.0 | 9.0 | 0.00 | 0.00 | 0.00 | 63 | 1008.7 |
| 20260505235503 | 79 | 301 | 7.0 | 9.0 | 0.00 | 0.00 | 0.00 | 62 | 1008.5 |
| 20260505234514 | 80 | 321 | 9.0 | 11.0 | 0.00 | 0.00 | 0.00 | 60 | 1008.6 |
| 20260505233503 | 82 | 355 | 6.0 | 8.0 | 0.00 | 0.00 | 0.00 | 59 | 1008.4 |
| 20260505232455 | 84 | 238 | 5.0 | 8.0 | 0.00 | 0.00 | 0.00 | 53 | 1008.3 |
| 20260505231503 | 84 | 326 | 3.0 | 5.0 | 0.00 | 0.00 | 0.00 | 50 | 1007.9 |
| 20260505230455 | 84 | 55 | 2.0 | 3.0 | 0.00 | 0.00 | 0.00 | 50 | 1007.7 |
| 20260505225503 | 86 | 287 | 5.0 | 8.0 | 0.00 | 0.00 | 0.00 | 49 | 1007.6 |
| 20260505224455 | 89 | 183 | 3.0 | 5.0 | 0.00 | 0.00 | 0.00 | 54 | 1007.5 |
| 20260505223502 | 90 | 189 | 8.0 | 10.0 | 0.00 | 0.00 | 0.00 | 52 | 1007.3 |
| 20260505222515 | 91 | 127 | 3.0 | 6.0 | 0.00 | 0.00 | 0.00 | 51 | 1006.9 |
| 20260505221523 | 89 | 131 | 2.0 | 3.0 | 0.00 | 0.00 | 0.00 | 54 | 1006.9 |
| 20260505220454 | 89 | 145 | 3.0 | 6.0 | 0.00 | 0.00 | 0.00 | 54 | 1007.2 |
| 20260505215503 | 90 | 193 | 4.0 | 6.0 | 0.00 | 0.00 | 0.00 | 50 | 1007.2 |
| 20260505214455 | 91 | 153 | 3.0 | 5.0 | 0.00 | 0.00 | 0.00 | 52 | 1007.3 |
| 20260505213523 | 89 | 173 | 5.0 | 6.0 | 0.00 | 0.00 | 0.00 | 55 | 1007.4 |
| 20260505212455 | 89 | 170 | 4.0 | 8.0 | 0.00 | 0.00 | 0.00 | 54 | 1007.6 |
| 20260505211503 | 88 | 171 | 5.0 | 7.0 | 0.00 | 0.00 | 0.00 | 56 | 1007.6 |
| 20260505210455 | 88 | 137 | 2.0 | 3.0 | 0.00 | 0.00 | 0.00 | 57 | 1007.9 |
| 20260505205523 | 89 | 189 | 7.0 | 10.0 | 0.00 | 0.00 | 0.00 | 55 | 1007.7 |
| 20260505204455 | 89 | 0.0 | 0.0 | 0.00 | 0.00 | 0.00 | 56 | 1007.8 | |
| 20260505203503 | 88 | 231 | 11.0 | 11.0 | 0.00 | 0.00 | 0.00 | 56 | 1008.0 |
| 20260505202456 | 88 | 200 | 7.0 | 9.0 | 0.00 | 0.00 | 0.00 | 56 | 1007.9 |
| 20260505201433 | 88 | 211 | 9.0 | 10.0 | 0.00 | 0.00 | 0.00 | 57 | 1008.0 |
| 20260505200433 | 88 | 207 | 6.0 | 8.0 | 0.00 | 0.00 | 0.00 | 55 | 1008.2 |
| 20260505195507 | 87 | 173 | 14.0 | 18.0 | 0.00 | 0.00 | 0.00 | 56 | 1008.2 |
| 20260505194433 | 87 | 165 | 8.0 | 10.0 | 0.00 | 0.00 | 0.00 | 58 | 1008.2 |
| 20260505193433 | 87 | 164 | 10.0 | 15.0 | 0.00 | 0.00 | 0.00 | 58 | 1008.2 |
| 20260505192433 | 85 | 184 | 9.0 | 13.0 | 0.00 | 0.00 | 0.00 | 60 | 1008.4 |
| 20260505191433 | 87 | 181 | 9.0 | 15.0 | 0.00 | 0.00 | 0.00 | 59 | 1008.2 |
| 20260505190433 | 85 | 168 | 5.0 | 8.0 | 0.00 | 0.00 | 0.00 | 62 | 1008.4 |
| 20260505185453 | 84 | 185 | 4.0 | 7.0 | 0.00 | 0.00 | 0.00 | 63 | 1008.4 |
| 20260505184433 | 84 | 179 | 9.0 | 14.0 | 0.00 | 0.00 | 0.00 | 62 | 1008.4 |
| 20260505183433 | 83 | 138 | 5.0 | 7.0 | 0.00 | 0.00 | 0.00 | 64 | 1008.4 |
| 20260505182434 | 83 | 284 | 11.0 | 15.0 | 0.00 | 0.00 | 0.00 | 63 | 1008.4 |
| 20260505181433 | 84 | 200 | 7.0 | 9.0 | 0.00 | 0.00 | 0.00 | 63 | 1008.7 |
| 20260505180434 | 84 | 142 | 8.0 | 9.0 | 0.00 | 0.00 | 0.00 | 62 | 1008.5 |
| 20260505175453 | 83 | 131 | 7.0 | 8.0 | 0.00 | 0.00 | 0.00 | 64 | 1008.6 |
| 20260505174433 | 82 | 166 | 8.0 | 11.0 | 0.00 | 0.00 | 0.00 | 66 | 1008.5 |
| 20260505173433 | 82 | 149 | 7.0 | 10.0 | 0.00 | 0.00 | 0.00 | 66 | 1008.5 |
| 20260505172433 | 82 | 125 | 7.0 | 11.0 | 0.00 | 0.00 | 0.00 | 65 | 1008.6 |
| 20260505171433 | 81 | 131 | 7.0 | 9.0 | 0.00 | 0.00 | 0.00 | 66 | 1008.5 |
| 20260505170433 | 81 | 133 | 7.0 | 9.0 | 0.00 | 0.00 | 0.00 | 66 | 1008.7 |
| 20260505165513 | 81 | 142 | 3.0 | 6.0 | 0.00 | 0.00 | 0.00 | 67 | 1008.6 |
| 20260505164433 | 81 | 191 | 9.0 | 14.0 | 0.00 | 0.00 | 0.00 | 66 | 1008.8 |
| 20260505163433 | 80 | 117 | 5.0 | 7.0 | 0.00 | 0.00 | 0.00 | 68 | 1008.7 |
| 20260505162434 | 80 | 211 | 8.0 | 11.0 | 0.00 | 0.00 | 0.00 | 67 | 1008.7 |
| 20260505161453 | 80 | 146 | 8.0 | 10.0 | 0.00 | 0.00 | 0.00 | 68 | 1008.5 |
| 20260505160433 | 79 | 179 | 8.0 | 10.0 | 0.00 | 0.00 | 0.00 | 69 | 1008.5 |
| 20260505152433 | 78 | 205 | 10.0 | 16.0 | 0.00 | 0.00 | 0.00 | 72 | 1008.3 |
| 20260505151433 | 77 | 234 | 8.0 | 11.0 | 0.00 | 0.00 | 0.00 | 74 | 1008.6 |
| 20260505150434 | 77 | 122 | 8.0 | 13.0 | 0.00 | 0.00 | 0.00 | 73 | 1008.6 |
| 20260505140434 | 74 | 184 | 4.0 | 8.0 | 0.00 | 0.00 | 0.00 | 79 | 1008.6 |